Overview Statistics Trail Chart Weather Telemetry Raw packets
 

This is the latest recevied weather packets stored in our database for station/object SV9TNF-55. If no packets are shown the sender has not sent any weather packets the latest 10 day(s).

<< 35 36 37 38 39 40 41 >>
Time Temp. Humidity Pressure Rain* Wind** Luminosity Snow
1788123421 20.56° C 62% 1015.6 hPa 0 mm 2.24 m/s, 292° - -
1788122820 20.56° C 62% 1015.6 hPa 0 mm 2.24 m/s, 292° - -
1788122221 20.56° C 62% 1015.6 hPa 0 mm 2.24 m/s, 292° - -
1788121620 20.56° C 62% 1015.6 hPa 0 mm 2.24 m/s, 292° - -
1788121020 20.56° C 62% 1015.6 hPa 0 mm 2.24 m/s, 292° - -
1788120420 20.56° C 62% 1015.6 hPa 0 mm 2.24 m/s, 292° - -
1788119823 20.56° C 62% 1015.6 hPa 0 mm 1.79 m/s, 315° - -
1788119220 20.56° C 62% 1015.6 hPa 0 mm 3.58 m/s, 292° - -
1788118620 20.56° C 61% 1015.8 hPa 0 mm 2.68 m/s, 315° - -
1788118020 20.56° C 62% 1015.7 hPa 0 mm 3.58 m/s, 292° - -
1788117420 20.56° C 62% 1015.7 hPa 0 mm 3.13 m/s, 292° - -
1788116820 20.56° C 61% 1015.7 hPa 0 mm 3.58 m/s, 292° - -
1788116220 20.56° C 59% 1015.4 hPa 0 mm 2.68 m/s, 292° - -
1788115619 20.56° C 57% 1015.5 hPa 0 mm 2.68 m/s, 292° - -
1788115019 20.56° C 57% 1015.5 hPa 0 mm 2.68 m/s, 292° - -
1788114419 21.11° C 58% 1015.4 hPa 0 mm 4.47 m/s, 292° - -
1788113819 21.67° C 59% 1014.8 hPa 0 mm 2.68 m/s, 292° - -
1788113219 21.67° C 59% 1014.8 hPa 0 mm 2.68 m/s, 292° - -
1788112619 21.67° C 59% 1014.8 hPa 0 mm 2.68 m/s, 292° - -
1788112019 21.67° C 59% 1014.8 hPa 0 mm 2.68 m/s, 292° - -
1788111420 21.67° C 59% 1014.8 hPa 0 mm 2.68 m/s, 292° - -
1788110820 21.67° C 59% 1014.8 hPa 0 mm 2.68 m/s, 292° - -
1788110220 21.67° C 59% 1014.8 hPa 0 mm 2.68 m/s, 292° - -
1788109619 21.67° C 59% 1014.6 hPa 0 mm 2.68 m/s, 292° - -
1788109018 22.78° C 55% 1014.7 hPa 0 mm 3.58 m/s, 292° - -

* Rain latest hour (hover to see other rain measurements)
** Current wind speed in m/s (hover to see current wind gust speed)